�������l�o���
Date,Time,MP-1(��Sv/h),MP-2(��Sv/h),MP-3(��Sv/h),MP-4(��Sv/h),MP-5(��Sv/h),MP-6(��Sv/h),MP-7(��Sv/h),MP-8(��Sv/h),����,����(m/s),���J
2024/02/07,00:00,0.452,0.677,0.435,0.924,0.614,0.295,0.538,0.510,�k��,6.9,��
2024/02/07,00:10,0.452,0.675,0.436,0.923,0.613,0.295,0.541,0.511,�k��,5.8,��
2024/02/07,00:20,0.452,0.674,0.436,0.923,0.612,0.295,0.537,0.507,�k��,6.5,��
2024/02/07,00:30,0.452,0.676,0.436,0.924,0.612,0.296,0.539,0.510,�k��,6.0,��
2024/02/07,00:40,0.452,0.677,0.435,0.922,0.615,0.296,0.539,0.509,�k��,7.0,��
2024/02/07,00:50,0.451,0.675,0.435,0.924,0.613,0.295,0.538,0.509,�k��,6.4,��
2024/02/07,01:00,0.452,0.676,0.436,0.923,0.614,0.295,0.538,0.510,�k��,6.7,��
2024/02/07,01:10,0.451,0.676,0.437,0.922,0.612,0.297,0.538,0.510,�k��,5.5,��
2024/02/07,01:20,0.452,0.677,0.435,0.925,0.613,0.295,0.537,0.510,�k��,6.5,��
2024/02/07,01:30,0.452,0.677,0.436,0.924,0.615,0.296,0.539,0.510,�k��,6.6,��
2024/02/07,01:40,0.453,0.675,0.435,0.923,0.614,0.295,0.538,0.510,�k��,7.2,��
2024/02/07,01:50,0.453,0.675,0.435,0.925,0.614,0.295,0.538,0.510,�k��,7.1,��
2024/02/07,02:00,0.453,0.674,0.435,0.923,0.614,0.295,0.539,0.510,�k��,6.6,��
2024/02/07,02:10,0.451,0.678,0.435,0.927,0.617,0.295,0.539,0.511,�k��,5.3,��
2024/02/07,02:20,0.452,0.674,0.435,0.923,0.614,0.295,0.538,0.508,�k��,6.1,��
2024/02/07,02:30,0.452,0.676,0.434,0.925,0.614,0.296,0.539,0.511,�k��,5.0,��
2024/02/07,02:40,0.452,0.673,0.435,0.923,0.613,0.296,0.539,0.510,�k��,5.6,��
2024/02/07,02:50,0.452,0.676,0.436,0.922,0.614,0.296,0.538,0.509,�k��,4.7,��
2024/02/07,03:00,0.452,0.676,0.434,0.924,0.613,0.295,0.540,0.511,�k��,5.9,��
2024/02/07,03:10,0.453,0.673,0.437,0.925,0.613,0.295,0.541,0.510,�k��,5.9,��
2024/02/07,03:20,0.451,0.673,0.436,0.923,0.613,0.297,0.539,0.509,�k��,6.0,��
2024/02/07,03:30,0.454,0.677,0.434,0.924,0.614,0.296,0.539,0.510,�k��,5.4,��
2024/02/07,03:40,0.453,0.676,0.437,0.923,0.614,0.296,0.538,0.510,�k��,6.1,��
2024/02/07,03:50,0.452,0.676,0.435,0.924,0.613,0.297,0.538,0.510,�k��,6.3,��
2024/02/07,04:00,0.453,0.677,0.435,0.924,0.613,0.295,0.539,0.509,�k��,6.7,��
2024/02/07,04:10,0.453,0.677,0.435,0.924,0.613,0.295,0.537,0.509,�k��,5.8,��
2024/02/07,04:20,0.454,0.675,0.435,0.924,0.613,0.296,0.540,0.510,�k��,5.9,��
2024/02/07,04:30,0.452,0.675,0.435,0.923,0.617,0.295,0.538,0.510,�k��,5.6,��
2024/02/07,04:40,0.454,0.674,0.437,0.924,0.614,0.296,0.540,0.510,�k��,4.8,��
2024/02/07,04:50,0.452,0.675,0.437,0.923,0.614,0.297,0.538,0.510,�k��,4.8,��
2024/02/07,05:00,0.453,0.675,0.435,0.921,0.614,0.295,0.540,0.510,�k��,4.9,��
2024/02/07,05:10,0.453,0.675,0.435,0.925,0.613,0.295,0.538,0.510,�k��,4.9,��
2024/02/07,05:20,0.453,0.675,0.436,0.922,0.614,0.295,0.538,0.509,�k��,5.9,��
2024/02/07,05:30,0.452,0.677,0.435,0.925,0.613,0.295,0.540,0.509,�k��,5.2,��
2024/02/07,05:40,0.451,0.675,0.436,0.922,0.614,0.295,0.538,0.509,�k��,5.4,��
2024/02/07,05:50,0.452,0.675,0.438,0.924,0.612,0.295,0.539,0.510,�k��,6.1,��
2024/02/07,06:00,0.454,0.675,0.435,0.927,0.614,0.296,0.538,0.509,�k��,5.2,��
2024/02/07,06:10,0.453,0.678,0.436,0.924,0.614,0.294,0.539,0.509,�k��,5.8,��
2024/02/07,06:20,0.452,0.676,0.435,0.922,0.613,0.294,0.538,0.508,�k�k��,5.5,��
2024/02/07,06:30,0.453,0.676,0.436,0.926,0.613,0.296,0.538,0.510,�k�k��,5.4,��
2024/02/07,06:40,0.452,0.674,0.437,0.925,0.615,0.295,0.538,0.511,�k��,5.3,��
2024/02/07,06:50,0.451,0.676,0.434,0.924,0.614,0.294,0.538,0.509,�k��,4.8,��
2024/02/07,07:00,0.451,0.676,0.434,0.923,0.614,0.294,0.539,0.510,�k��,4.5,��
2024/02/07,07:10,0.451,0.677,0.434,0.922,0.616,0.295,0.539,0.509,�k��,5.1,��
2024/02/07,07:20,0.454,0.675,0.436,0.923,0.615,0.295,0.539,0.510,�k��,5.4,��
2024/02/07,07:30,0.452,0.675,0.435,0.925,0.614,0.294,0.538,0.509,�k��,5.1,��
2024/02/07,07:40,0.452,0.676,0.435,0.926,0.614,0.294,0.539,0.510,�k��,5.0,��
2024/02/07,07:50,0.452,0.675,0.437,0.924,0.614,0.295,0.538,0.508,�k�k��,4.6,��
2024/02/07,08:00,0.453,0.678,0.435,0.925,0.613,0.296,0.539,0.510,�k��,5.3,��
2024/02/07,08:10,0.453,0.674,0.435,0.925,0.613,0.295,0.539,0.510,�k�k��,4.5,��
2024/02/07,08:20,0.453,0.677,0.435,0.923,0.613,0.294,0.539,0.511,�k�k��,4.0,��
2024/02/07,08:30,0.453,0.675,0.435,0.923,0.612,0.294,0.540,0.511,�k�k��,3.7,��
2024/02/07,08:40,0.453,0.676,0.435,0.924,0.613,0.295,0.539,0.510,�k�k��,3.9,��
2024/02/07,08:50,0.453,0.679,0.436,0.924,0.613,0.295,0.539,0.510,�k,4.1,��
2024/02/07,09:00,0.453,0.676,0.435,0.923,0.612,0.294,0.539,0.511,�k�k��,3.9,��
2024/02/07,09:10,0.452,0.677,0.434,0.924,0.614,0.295,0.541,0.510,�k�k��,3.8,��
2024/02/07,09:20,0.453,0.678,0.437,0.926,0.614,0.295,0.540,0.512,�k,3.8,��
2024/02/07,09:30,0.454,0.677,0.435,0.925,0.614,0.295,0.539,0.509,�k�k��,4.6,��
2024/02/07,09:40,0.454,0.677,0.436,0.925,0.615,0.295,0.538,0.511,�k�k��,3.6,��
2024/02/07,09:50,0.454,0.677,0.437,0.925,0.615,0.296,0.539,0.511,�k�k��,3.8,��
2024/02/07,10:00,0.453,0.677,0.436,0.923,0.615,0.297,0.539,0.511,�k�k��,3.3,��
2024/02/07,10:10,0.454,0.675,0.437,0.924,0.616,0.295,0.539,0.511,�k�k��,3.2,��
2024/02/07,10:20,0.455,0.677,0.436,0.925,0.617,0.295,0.540,0.511,�k,3.1,��
2024/02/07,10:30,0.454,0.678,0.438,0.928,0.616,0.297,0.540,0.510,�k,3.7,��
2024/02/07,10:40,0.454,0.677,0.437,0.927,0.617,0.297,0.540,0.511,�k,3.8,��
2024/02/07,10:50,0.454,0.679,0.439,0.927,0.619,0.296,0.538,0.510,�k,2.3,��
2024/02/07,11:00,0.454,0.680,0.436,0.923,0.620,0.296,0.538,0.511,�k,2.6,��
2024/02/07,11:10,0.455,0.681,0.439,0.926,0.620,0.296,0.540,0.512,�k,2.9,��
2024/02/07,11:20,0.457,0.681,0.439,0.925,0.622,0.296,0.540,0.512,�k�k��,2.8,��
2024/02/07,11:30,0.458,0.681,0.439,0.927,0.623,0.297,0.539,0.511,�k�k��,1.7,��
2024/02/07,11:40,0.460,0.685,0.439,0.926,0.624,0.297,0.539,0.511,�k�k��,1.8,��
2024/02/07,11:50,0.458,0.687,0.440,0.925,0.625,0.299,0.539,0.512,�k�k��,1.9,��
2024/02/07,12:00,0.461,0.687,0.441,0.928,0.625,0.296,0.540,0.512,�k��,2.0,��
2024/02/07,12:10,0.460,0.688,0.442,0.928,0.628,0.298,0.539,0.511,�k��,2.3,�L
2024/02/07,12:20,0.462,0.689,0.442,0.926,0.632,0.298,0.540,0.512,�k�k��,2.2,��
2024/02/07,12:30,0.462,0.691,0.443,0.926,0.630,0.297,0.541,0.513,�k��,2.0,��
2024/02/07,12:40,0.464,0.692,0.444,0.929,0.632,0.299,0.542,0.513,���k��,2.6,��
2024/02/07,12:50,0.462,0.693,0.444,0.926,0.633,0.297,0.540,0.513,���k��,3.0,��
2024/02/07,13:00,0.467,0.699,0.447,0.927,0.634,0.303,0.541,0.514,�k��,2.6,��
2024/02/07,13:10,0.468,0.697,0.449,0.929,0.638,0.299,0.542,0.514,�k��,2.6,��
2024/02/07,13:20,0.467,0.699,0.449,0.927,0.637,0.298,0.542,0.513,�k��,3.1,��
2024/02/07,13:30,0.469,0.701,0.449,0.927,0.640,0.299,0.542,0.514,�k�k��,3.1,��
2024/02/07,13:40,0.470,0.702,0.451,0.931,0.641,0.299,0.541,0.514,���k��,3.7,��
2024/02/07,13:50,0.471,0.701,0.452,0.930,0.641,0.301,0.544,0.515,�k��,2.9,��
2024/02/07,14:00,0.471,0.702,0.453,0.930,0.644,0.300,0.543,0.514,�k�k��,2.3,��
2024/02/07,14:10,0.472,0.707,0.454,0.930,0.644,0.300,0.542,0.514,�k�k��,3.1,��
2024/02/07,14:20,0.473,0.704,0.454,0.931,0.646,0.301,0.543,0.514,�k�k��,2.2,��
2024/02/07,14:30,0.473,0.707,0.456,0.929,0.647,0.302,0.544,0.511,�k�k��,2.8,��
2024/02/07,14:40,0.475,0.709,0.458,0.932,0.647,0.300,0.544,0.511,�k��,2.9,��
2024/02/07,14:50,0.475,0.710,0.460,0.930,0.646,0.302,0.544,0.512,�k��,2.0,��
2024/02/07,15:00,0.475,0.711,0.458,0.931,0.648,0.302,0.545,0.513,�k��,1.2,��
2024/02/07,15:10,0.476,0.711,0.459,0.929,0.648,0.302,0.545,0.514,�k,1.8,��
2024/02/07,15:20,0.476,0.710,0.460,0.931,0.648,0.301,0.543,0.513,�k�k��,2.3,��
2024/02/07,15:30,0.476,0.714,0.463,0.931,0.648,0.302,0.546,0.515,�k�k��,1.8,��
2024/02/07,15:40,0.478,0.714,0.462,0.932,0.652,0.302,0.546,0.514,�k�k��,1.7,��
2024/02/07,15:50,0.479,0.717,0.460,0.931,0.653,0.301,0.545,0.515,�k,0.9,��
2024/02/07,16:00,0.478,0.717,0.463,0.932,0.653,0.303,0.546,0.513,�k��,1.2,�L
2024/02/07,16:10,0.479,0.719,0.462,0.933,0.652,0.302,0.545,0.515,�k�k��,0.6,��
2024/02/07,16:20,0.479,0.720,0.461,0.929,0.654,0.303,0.545,0.516,�k��,0.9,��
2024/02/07,16:30,0.479,0.717,0.461,0.931,0.653,0.302,0.546,0.514,���k��,0.9,��
2024/02/07,16:40,0.481,0.719,0.463,0.935,0.654,0.301,0.547,0.515,���k��,1.5,��
2024/02/07,16:50,0.480,0.718,0.464,0.932,0.654,0.302,0.546,0.514,���k��,2.2,��
2024/02/07,17:00,0.483,0.719,0.464,0.934,0.656,0.303,0.546,0.516,��,3.6,��
2024/02/07,17:10,0.481,0.719,0.463,0.934,0.656,0.304,0.546,0.514,��,4.0,��
2024/02/07,17:20,0.480,0.721,0.463,0.932,0.655,0.302,0.546,0.514,���k��,5.1,��
2024/02/07,17:30,0.481,0.719,0.463,0.933,0.657,0.302,0.546,0.515,���k��,4.5,��
2024/02/07,17:40,0.481,0.721,0.464,0.935,0.656,0.303,0.545,0.514,���k��,4.4,��
2024/02/07,17:50,0.482,0.721,0.463,0.933,0.657,0.303,0.546,0.515,�k��,3.9,��
2024/02/07,18:00,0.480,0.721,0.463,0.933,0.656,0.302,0.544,0.514,�k��,3.0,��
2024/02/07,18:10,0.482,0.721,0.466,0.933,0.656,0.302,0.544,0.514,���k��,4.1,��
2024/02/07,18:20,0.480,0.721,0.465,0.936,0.657,0.303,0.546,0.514,���k��,4.5,��
2024/02/07,18:30,0.481,0.722,0.463,0.938,0.658,0.303,0.545,0.513,��,4.1,��
2024/02/07,18:40,0.481,0.724,0.464,0.934,0.655,0.303,0.546,0.515,���k��,4.9,��
2024/02/07,18:50,0.481,0.723,0.465,0.935,0.658,0.302,0.544,0.514,��,4.6,��
2024/02/07,19:00,0.483,0.722,0.463,0.935,0.656,0.303,0.544,0.513,��,5.2,��
2024/02/07,19:10,0.481,0.724,0.464,0.932,0.658,0.304,0.546,0.514,��,5.1,��
2024/02/07,19:20,0.481,0.722,0.466,0.935,0.655,0.302,0.545,0.514,���k��,5.5,��
2024/02/07,19:30,0.483,0.722,0.464,0.936,0.657,0.302,0.547,0.512,���k��,4.2,��
2024/02/07,19:40,0.481,0.721,0.464,0.935,0.658,0.302,0.545,0.514,��,5.0,��
2024/02/07,19:50,0.484,0.722,0.464,0.934,0.656,0.302,0.545,0.513,��,5.4,��
2024/02/07,20:00,0.481,0.723,0.464,0.933,0.657,0.303,0.547,0.514,���k��,4.2,��
2024/02/07,20:10,0.481,0.723,0.464,0.935,0.658,0.302,0.545,0.513,�k��,4.0,��
2024/02/07,20:20,0.482,0.722,0.465,0.935,0.657,0.304,0.545,0.513,���k��,2.3,��
2024/02/07,20:30,0.484,0.723,0.464,0.933,0.657,0.303,0.545,0.512,���k��,2.0,��
2024/02/07,20:40,0.483,0.723,0.464,0.935,0.656,0.303,0.546,0.514,���k��,5.6,��
2024/02/07,20:50,0.482,0.726,0.462,0.935,0.659,0.302,0.546,0.514,���k��,6.2,��
2024/02/07,21:00,0.482,0.722,0.464,0.934,0.658,0.301,0.545,0.513,���k��,5.6,��
2024/02/07,21:10,0.482,0.722,0.466,0.934,0.659,0.302,0.543,0.513,��,5.8,��
2024/02/07,21:20,0.482,0.725,0.463,0.935,0.657,0.303,0.544,0.515,��,6.1,��
2024/02/07,21:30,0.482,0.726,0.464,0.935,0.658,0.302,0.547,0.514,��,6.7,��
2024/02/07,21:40,0.483,0.723,0.464,0.935,0.657,0.303,0.547,0.515,��,6.0,��
2024/02/07,21:50,0.483,0.724,0.464,0.936,0.656,0.303,0.546,0.513,��,5.6,��
2024/02/07,22:00,0.482,0.724,0.464,0.934,0.658,0.302,0.545,0.514,��,4.8,��
2024/02/07,22:10,0.483,0.724,0.467,0.935,0.656,0.303,0.546,0.515,���k��,5.5,��
2024/02/07,22:20,0.481,0.725,0.465,0.936,0.657,0.303,0.545,0.513,��,5.3,��
2024/02/07,22:30,0.482,0.723,0.465,0.935,0.657,0.302,0.546,0.513,��,5.2,��
2024/02/07,22:40,0.482,0.724,0.465,0.936,0.657,0.303,0.546,0.513,��,4.1,��
2024/02/07,22:50,0.484,0.725,0.467,0.936,0.657,0.302,0.545,0.514,���쐼,3.8,��
2024/02/07,23:00,0.483,0.722,0.467,0.937,0.658,0.301,0.547,0.514,��,3.9,��
2024/02/07,23:10,0.481,0.724,0.464,0.936,0.659,0.302,0.545,0.514,��,4.4,��
2024/02/07,23:20,0.484,0.724,0.465,0.934,0.657,0.302,0.545,0.514,���k��,2.3,��
2024/02/07,23:30,0.484,0.724,0.464,0.936,0.657,0.303,0.546,0.512,���k��,2.8,��
2024/02/07,23:40,0.482,0.727,0.465,0.935,0.657,0.304,0.546,0.513,�k��,3.1,��
2024/02/07,23:50,0.482,0.724,0.465,0.936,0.658,0.302,0.545,0.516,�k��,4.0,��
